| time (UTC) | temp F | wind direction | speed MPH | gust MPH | rain 1hr in | rain 24hr in | rain mn in | humidity % | barometer mb |
| 20260504050346 | 62 | 284 | 7.0 | 10.0 | 0.00 | 0.00 | 0.00 | 62 | 1011.0 |
| 20260504045843 | 62 | 221 | 6.0 | 10.0 | 0.00 | 0.00 | 0.00 | 64 | 1011.2 |
| 20260504045338 | 62 | 225 | 8.0 | 11.0 | 0.00 | 0.00 | 0.00 | 64 | 1011.0 |
| 20260504044835 | 62 | 224 | 7.0 | 8.0 | 0.00 | 0.00 | 0.00 | 64 | 1010.9 |
| 20260504044333 | 62 | 199 | 3.0 | 7.0 | 0.00 | 0.00 | 0.00 | 65 | 1011.0 |
| 20260504043830 | 62 | 239 | 7.0 | 8.0 | 0.00 | 0.00 | 0.00 | 65 | 1010.9 |
| 20260504043327 | 61 | 183 | 1.0 | 11.0 | 0.00 | 0.00 | 0.00 | 66 | 1010.8 |
| 20260504042824 | 61 | 246 | 6.0 | 9.0 | 0.00 | 0.00 | 0.00 | 66 | 1010.5 |
| 20260504042320 | 60 | 175 | 6.0 | 8.0 | 0.00 | 0.00 | 0.00 | 66 | 1010.9 |
| 20260504041817 | 60 | 208 | 5.0 | 8.0 | 0.00 | 0.00 | 0.00 | 67 | 1010.9 |
| 20260504041313 | 60 | 197 | 6.0 | 8.0 | 0.00 | 0.00 | 0.00 | 67 | 1011.1 |
| 20260504040809 | 60 | 222 | 4.0 | 8.0 | 0.00 | 0.00 | 0.00 | 67 | 1010.9 |
| 20260504040307 | 60 | 239 | 6.0 | 9.0 | 0.00 | 0.00 | 0.00 | 67 | 1010.8 |
| 20260504035803 | 60 | 236 | 3.0 | 5.0 | 0.00 | 0.00 | 0.00 | 68 | 1010.7 |
| 20260504035300 | 60 | 213 | 2.0 | 5.0 | 0.00 | 0.00 | 0.00 | 68 | 1010.7 |
| 20260504034757 | 59 | 228 | 3.0 | 3.0 | 0.00 | 0.00 | 0.00 | 68 | 1010.7 |
| 20260504034255 | 59 | 271 | 1.0 | 3.0 | 0.00 | 0.00 | 0.00 | 68 | 1010.8 |
| 20260504033752 | 59 | 170 | 1.0 | 3.0 | 0.00 | 0.00 | 0.00 | 68 | 1010.6 |
| 20260504033249 | 59 | 258 | 4.0 | 5.0 | 0.00 | 0.00 | 0.00 | 67 | 1010.6 |
| 20260504032746 | 60 | 197 | 4.0 | 6.0 | 0.00 | 0.00 | 0.00 | 67 | 1010.6 |
| 20260504032243 | 60 | 240 | 5.0 | 7.0 | 0.00 | 0.00 | 0.00 | 67 | 1010.7 |
| 20260504031740 | 60 | 218 | 5.0 | 7.0 | 0.00 | 0.00 | 0.00 | 67 | 1010.4 |
| 20260504031238 | 59 | 243 | 5.0 | 6.0 | 0.00 | 0.00 | 0.00 | 68 | 1010.5 |
| 20260504030733 | 59 | 201 | 2.0 | 7.0 | 0.00 | 0.00 | 0.00 | 68 | 1010.5 |
| 20260504030230 | 59 | 210 | 2.0 | 6.0 | 0.00 | 0.00 | 0.00 | 68 | 1010.4 |
| 20260504025727 | 59 | 204 | 3.0 | 5.0 | 0.00 | 0.00 | 0.00 | 68 | 1010.6 |
| 20260504025224 | 59 | 234 | 2.0 | 5.0 | 0.00 | 0.00 | 0.00 | 68 | 1010.3 |
| 20260504024721 | 59 | 197 | 2.0 | 6.0 | 0.00 | 0.00 | 0.00 | 68 | 1010.5 |
| 20260504024217 | 59 | 249 | 3.0 | 6.0 | 0.00 | 0.00 | 0.00 | 68 | 1010.7 |
| 20260504023714 | 59 | 191 | 4.0 | 7.0 | 0.00 | 0.00 | 0.00 | 68 | 1010.4 |
| 20260504023210 | 59 | 238 | 3.0 | 3.0 | 0.00 | 0.00 | 0.00 | 69 | 1010.5 |
| 20260504022706 | 59 | 153 | 1.0 | 3.0 | 0.00 | 0.00 | 0.00 | 69 | 1010.6 |
| 20260504022203 | 59 | 237 | 3.0 | 5.0 | 0.00 | 0.00 | 0.00 | 69 | 1010.6 |
| 20260504021701 | 59 | 150 | 1.0 | 3.0 | 0.00 | 0.00 | 0.00 | 69 | 1010.7 |
| 20260504021157 | 59 | 171 | 2.0 | 2.0 | 0.00 | 0.00 | 0.00 | 69 | 1010.6 |
| 20260504020654 | 59 | 168 | 2.0 | 5.0 | 0.00 | 0.00 | 0.00 | 69 | 1010.6 |
| 20260504020149 | 59 | 225 | 1.0 | 2.0 | 0.00 | 0.00 | 0.00 | 69 | 1010.6 |
| 20260504015647 | 59 | 266 | 3.0 | 6.0 | 0.00 | 0.00 | 0.00 | 69 | 1010.4 |
| 20260504015143 | 60 | 214 | 1.0 | 5.0 | 0.00 | 0.00 | 0.00 | 69 | 1010.6 |
| 20260504014639 | 60 | 257 | 2.0 | 3.0 | 0.00 | 0.00 | 0.00 | 68 | 1010.5 |
| 20260504014136 | 60 | 234 | 3.0 | 5.0 | 0.00 | 0.00 | 0.00 | 68 | 1010.4 |
| 20260504013634 | 60 | 242 | 2.0 | 5.0 | 0.00 | 0.00 | 0.00 | 68 | 1010.4 |
| 20260504013131 | 60 | 264 | 3.0 | 6.0 | 0.00 | 0.00 | 0.00 | 67 | 1010.6 |
| 20260504012628 | 60 | 233 | 3.0 | 6.0 | 0.00 | 0.00 | 0.00 | 67 | 1010.6 |
| 20260504012126 | 60 | 226 | 3.0 | 7.0 | 0.00 | 0.00 | 0.00 | 67 | 1010.6 |
| 20260504011622 | 60 | 232 | 4.0 | 6.0 | 0.00 | 0.00 | 0.00 | 66 | 1010.5 |
| 20260504011119 | 60 | 231 | 2.0 | 3.0 | 0.00 | 0.00 | 0.00 | 66 | 1010.5 |
| 20260504010614 | 60 | 213 | 5.0 | 6.0 | 0.00 | 0.00 | 0.00 | 66 | 1010.4 |
| 20260504010110 | 60 | 219 | 3.0 | 6.0 | 0.00 | 0.00 | 0.00 | 66 | 1010.4 |
| 20260504005608 | 60 | 219 | 2.0 | 5.0 | 0.00 | 0.00 | 0.00 | 66 | 1010.5 |
| 20260504005104 | 60 | 225 | 3.0 | 3.0 | 0.00 | 0.00 | 0.00 | 66 | 1010.5 |
| 20260504004603 | 60 | 179 | 4.0 | 5.0 | 0.00 | 0.00 | 0.00 | 66 | 1010.2 |
| 20260504004100 | 60 | 187 | 2.0 | 5.0 | 0.00 | 0.00 | 0.00 | 65 | 1010.4 |
| 20260504003555 | 60 | 162 | 3.0 | 5.0 | 0.00 | 0.00 | 0.00 | 65 | 1010.4 |
| 20260504003053 | 60 | 220 | 1.0 | 3.0 | 0.00 | 0.00 | 0.00 | 65 | 1010.6 |
| 20260504002549 | 60 | 244 | 2.0 | 5.0 | 0.00 | 0.00 | 0.00 | 66 | 1010.5 |
| 20260504002047 | 60 | 197 | 2.0 | 3.0 | 0.00 | 0.00 | 0.00 | 65 | 1010.4 |
| 20260504001544 | 60 | 245 | 3.0 | 5.0 | 0.00 | 0.00 | 0.00 | 65 | 1010.6 |
| 20260504001040 | 60 | 226 | 5.0 | 6.0 | 0.00 | 0.00 | 0.00 | 65 | 1010.6 |
| 20260504000538 | 60 | 165 | 2.0 | 5.0 | 0.00 | 0.00 | 0.00 | 64 | 1010.7 |
| 20260504000035 | 60 | 198 | 2.0 | 6.0 | 0.00 | 0.00 | 0.00 | 64 | 1010.5 |
| 20260503235533 | 60 | 246 | 3.0 | 3.0 | 0.00 | 0.00 | 0.00 | 63 | 1010.6 |
| 20260503235029 | 60 | 246 | 2.0 | 5.0 | 0.00 | 0.00 | 0.00 | 63 | 1010.7 |
| 20260503234527 | 60 | 250 | 3.0 | 5.0 | 0.00 | 0.00 | 0.00 | 63 | 1010.7 |
| 20260503234026 | 60 | 262 | 2.0 | 3.0 | 0.00 | 0.00 | 0.00 | 62 | 1010.7 |
| 20260503233521 | 60 | 260 | 2.0 | 3.0 | 0.00 | 0.00 | 0.00 | 61 | 1010.5 |
| 20260503233017 | 60 | 284 | 2.0 | 3.0 | 0.00 | 0.00 | 0.00 | 61 | 1010.8 |
| 20260503232514 | 60 | 237 | 1.0 | 2.0 | 0.00 | 0.00 | 0.00 | 60 | 1010.8 |
| 20260503232011 | 60 | 236 | 2.0 | 7.0 | 0.00 | 0.00 | 0.00 | 60 | 1010.6 |
| 20260503231509 | 60 | 255 | 3.0 | 6.0 | 0.00 | 0.00 | 0.00 | 60 | 1010.7 |
| 20260503231006 | 60 | 304 | 3.0 | 6.0 | 0.00 | 0.00 | 0.00 | 61 | 1010.7 |
| 20260503230457 | 60 | 290 | 4.0 | 7.0 | 0.00 | 0.00 | 0.00 | 61 | 1010.7 |
| 20260503225954 | 60 | 259 | 3.0 | 5.0 | 0.00 | 0.00 | 0.00 | 62 | 1010.6 |
| 20260503225451 | 60 | 327 | 4.0 | 5.0 | 0.00 | 0.00 | 0.00 | 63 | 1010.4 |
| 20260503224947 | 60 | 353 | 1.0 | 5.0 | 0.00 | 0.00 | 0.00 | 63 | 1010.7 |
| 20260503224444 | 61 | 284 | 2.0 | 5.0 | 0.00 | 0.00 | 0.00 | 63 | 1010.9 |
| 20260503223942 | 61 | 343 | 1.0 | 3.0 | 0.00 | 0.00 | 0.00 | 63 | 1010.9 |
| 20260503223439 | 61 | 286 | 3.0 | 5.0 | 0.00 | 0.00 | 0.00 | 63 | 1011.0 |
| 20260503222934 | 61 | 281 | 3.0 | 6.0 | 0.00 | 0.00 | 0.00 | 63 | 1011.1 |
| 20260503222434 | 62 | 344 | 3.0 | 5.0 | 0.00 | 0.00 | 0.00 | 63 | 1011.0 |
| 20260503221931 | 62 | 257 | 5.0 | 8.0 | 0.00 | 0.00 | 0.00 | 63 | 1011.3 |
| 20260503221429 | 62 | 293 | 3.0 | 8.0 | 0.00 | 0.00 | 0.00 | 64 | 1011.2 |
| 20260503220926 | 62 | 283 | 3.0 | 9.0 | 0.00 | 0.00 | 0.00 | 64 | 1011.3 |
| 20260503220422 | 62 | 279 | 4.0 | 6.0 | 0.00 | 0.00 | 0.00 | 64 | 1011.2 |
| 20260503215919 | 62 | 254 | 6.0 | 13.0 | 0.00 | 0.00 | 0.00 | 64 | 1011.1 |
| 20260503215416 | 62 | 255 | 5.0 | 9.0 | 0.00 | 0.00 | 0.00 | 65 | 1011.1 |
| 20260503214914 | 62 | 303 | 5.0 | 8.0 | 0.00 | 0.00 | 0.00 | 66 | 1011.1 |
| 20260503214411 | 62 | 270 | 4.0 | 6.0 | 0.00 | 0.00 | 0.00 | 66 | 1011.2 |
| 20260503213909 | 62 | 273 | 5.0 | 8.0 | 0.00 | 0.00 | 0.00 | 66 | 1011.2 |
| 20260503213406 | 62 | 233 | 10.0 | 11.0 | 0.00 | 0.00 | 0.00 | 66 | 1011.3 |
| 20260503212903 | 62 | 302 | 8.0 | 14.0 | 0.00 | 0.00 | 0.00 | 67 | 1011.2 |
| 20260503212400 | 62 | 351 | 5.0 | 9.0 | 0.00 | 0.00 | 0.00 | 68 | 1011.2 |
| 20260503211857 | 62 | 272 | 6.0 | 8.0 | 0.00 | 0.00 | 0.00 | 69 | 1011.2 |
| 20260503211354 | 62 | 255 | 4.0 | 8.0 | 0.00 | 0.00 | 0.00 | 70 | 1011.2 |
| 20260503210849 | 63 | 329 | 6.0 | 9.0 | 0.00 | 0.00 | 0.00 | 71 | 1011.2 |
| 20260503210347 | 63 | 281 | 5.0 | 7.0 | 0.00 | 0.00 | 0.00 | 72 | 1011.1 |
| 20260503205842 | 63 | 300 | 4.0 | 9.0 | 0.00 | 0.00 | 0.00 | 72 | 1011.2 |
| 20260503205339 | 63 | 323 | 6.0 | 9.0 | 0.00 | 0.00 | 0.00 | 72 | 1011.0 |
| 20260503204835 | 63 | 246 | 4.0 | 13.0 | 0.00 | 0.00 | 0.00 | 72 | 1011.2 |
| 20260503204332 | 63 | 249 | 9.0 | 11.0 | 0.00 | 0.00 | 0.00 | 71 | 1011.2 |
| 20260503203829 | 63 | 248 | 6.0 | 8.0 | 0.00 | 0.00 | 0.00 | 70 | 1011.3 |
| 20260503203327 | 63 | 283 | 4.0 | 10.0 | 0.00 | 0.00 | 0.00 | 70 | 1011.1 |
| 20260503202823 | 63 | 282 | 5.0 | 8.0 | 0.00 | 0.00 | 0.00 | 69 | 1011.2 |
| 20260503202322 | 63 | 310 | 3.0 | 8.0 | 0.00 | 0.00 | 0.00 | 69 | 1011.1 |
| 20260503201820 | 63 | 353 | 2.0 | 5.0 | 0.00 | 0.00 | 0.00 | 69 | 1011.0 |
| 20260503201316 | 63 | 302 | 5.0 | 8.0 | 0.00 | 0.00 | 0.00 | 70 | 1011.2 |
| 20260503200814 | 63 | 315 | 5.0 | 7.0 | 0.00 | 0.00 | 0.00 | 70 | 1011.3 |
| 20260503200310 | 62 | 276 | 3.0 | 6.0 | 0.00 | 0.00 | 0.00 | 69 | 1011.1 |
| 20260503195807 | 62 | 335 | 3.0 | 3.0 | 0.00 | 0.00 | 0.00 | 69 | 1011.1 |
| 20260503195304 | 62 | 295 | 3.0 | 6.0 | 0.00 | 0.00 | 0.00 | 69 | 1011.1 |
| 20260503194801 | 62 | 336 | 5.0 | 6.0 | 0.00 | 0.00 | 0.00 | 69 | 1011.2 |
| 20260503194256 | 62 | 237 | 3.0 | 5.0 | 0.00 | 0.00 | 0.00 | 69 | 1011.1 |
| 20260503193753 | 62 | 296 | 4.0 | 6.0 | 0.00 | 0.00 | 0.00 | 69 | 1011.0 |
| 20260503193249 | 62 | 307 | 3.0 | 5.0 | 0.00 | 0.00 | 0.00 | 69 | 1011.1 |
| 20260503192745 | 62 | 251 | 4.0 | 6.0 | 0.00 | 0.00 | 0.00 | 69 | 1011.0 |
| 20260503192240 | 63 | 286 | 4.0 | 5.0 | 0.00 | 0.00 | 0.00 | 69 | 1011.0 |
| 20260503191737 | 63 | 308 | 4.0 | 8.0 | 0.00 | 0.00 | 0.00 | 69 | 1011.1 |
| 20260503191234 | 63 | 344 | 4.0 | 8.0 | 0.00 | 0.00 | 0.00 | 69 | 1011.0 |
| 20260503190731 | 63 | 254 | 6.0 | 8.0 | 0.00 | 0.00 | 0.00 | 69 | 1011.2 |
| 20260503190228 | 63 | 287 | 10.0 | 17.0 | 0.00 | 0.00 | 0.00 | 69 | 1011.0 |
| 20260503185725 | 64 | 315 | 7.0 | 11.0 | 0.00 | 0.00 | 0.00 | 69 | 1011.0 |
| 20260503185221 | 63 | 286 | 10.0 | 11.0 | 0.00 | 0.00 | 0.00 | 69 | 1010.9 |
| 20260503184715 | 64 | 289 | 6.0 | 7.0 | 0.00 | 0.00 | 0.00 | 69 | 1011.0 |
| 20260503184212 | 63 | 279 | 5.0 | 8.0 | 0.00 | 0.00 | 0.00 | 69 | 1010.9 |
| 20260503183709 | 64 | 331 | 3.0 | 7.0 | 0.00 | 0.00 | 0.00 | 69 | 1010.9 |
| 20260503183206 | 64 | 342 | 6.0 | 10.0 | 0.00 | 0.00 | 0.00 | 69 | 1010.7 |
| 20260503182704 | 64 | 293 | 3.0 | 8.0 | 0.00 | 0.00 | 0.00 | 69 | 1010.7 |
| 20260503182203 | 64 | 337 | 9.0 | 11.0 | 0.00 | 0.00 | 0.00 | 69 | 1010.5 |
| 20260503181658 | 64 | 352 | 6.0 | 9.0 | 0.00 | 0.00 | 0.00 | 70 | 1010.6 |
| 20260503181155 | 64 | 356 | 6.0 | 7.0 | 0.00 | 0.00 | 0.00 | 70 | 1010.4 |
| 20260503180652 | 64 | 269 | 3.0 | 5.0 | 0.00 | 0.00 | 0.00 | 70 | 1010.2 |
| 20260503180151 | 64 | 321 | 9.0 | 11.0 | 0.00 | 0.00 | 0.00 | 70 | 1010.1 |
| 20260503175647 | 64 | 277 | 7.0 | 10.0 | 0.00 | 0.00 | 0.00 | 71 | 1010.2 |
| 20260503175144 | 64 | 281 | 7.0 | 11.0 | 0.00 | 0.00 | 0.00 | 72 | 1010.1 |
| 20260503174640 | 64 | 305 | 9.0 | 11.0 | 0.00 | 0.00 | 0.00 | 72 | 1009.9 |
| 20260503174138 | 64 | 312 | 9.0 | 10.0 | 0.00 | 0.00 | 0.00 | 73 | 1009.7 |
| 20260503173633 | 64 | 337 | 9.0 | 14.0 | 0.00 | 0.00 | 0.00 | 73 | 1009.5 |
| 20260503173130 | 64 | 260 | 7.0 | 15.0 | 0.00 | 0.00 | 0.00 | 74 | 1009.3 |
| 20260503172626 | 64 | 15 | 7.0 | 15.0 | 0.00 | 0.00 | 0.00 | 74 | 1009.5 |
| 20260503172124 | 64 | 334 | 10.0 | 13.0 | 0.00 | 0.00 | 0.00 | 75 | 1009.3 |
| 20260503171620 | 64 | 295 | 7.0 | 16.0 | 0.00 | 0.00 | 0.00 | 76 | 1009.2 |
| 20260503171117 | 64 | 271 | 9.0 | 11.0 | 0.00 | 0.00 | 0.00 | 77 | 1009.5 |
| 20260503170615 | 64 | 272 | 7.0 | 13.0 | 0.00 | 0.00 | 0.00 | 78 | 1009.0 |
| 20260503170111 | 64 | 337 | 7.0 | 9.0 | 0.00 | 0.00 | 0.00 | 79 | 1009.0 |
| 20260503151006 | 65 | 315 | 11.0 | 14.0 | 0.00 | 0.00 | 0.00 | 81 | 1008.2 |
| 20260503150503 | 65 | 48 | 7.0 | 15.0 | 0.00 | 0.00 | 0.00 | 81 | 1008.1 |
| 20260503131350 | 71 | 293 | 9.0 | 18.0 | 0.00 | 0.00 | 0.00 | 70 | 1006.9 |
| 20260503130847 | 70 | 306 | 11.0 | 15.0 | 0.00 | 0.00 | 0.00 | 71 | 1007.0 |
| 20260503130344 | 71 | 349 | 9.0 | 14.0 | 0.00 | 0.00 | 0.00 | 69 | 1006.7 |
| 20260503110739 | 72 | 238 | 14.0 | 26.0 | 0.00 | 0.00 | 0.00 | 68 | 1006.1 |
| 20260503110236 | 72 | 293 | 10.0 | 20.0 | 0.00 | 0.00 | 0.00 | 69 | 1006.0 |
| 20260503100202 | 74 | 249 | 14.0 | 18.0 | 0.00 | 0.00 | 0.00 | 64 | 1005.1 |
| 20260503090121 | 75 | 250 | 12.0 | 16.0 | 0.00 | 0.00 | 0.00 | 65 | 1004.2 |
| 20260503081556 | 75 | 263 | 11.0 | 18.0 | 0.00 | 0.00 | 0.00 | 70 | 1003.6 |
| 20260503081053 | 75 | 235 | 8.0 | 21.0 | 0.00 | 0.00 | 0.00 | 70 | 1003.8 |
| 20260503080549 | 75 | 271 | 10.0 | 20.0 | 0.00 | 0.00 | 0.00 | 70 | 1003.6 |
| 20260503072523 | 75 | 229 | 13.0 | 16.0 | 0.00 | 0.00 | 0.00 | 64 | 1003.0 |
| 20260503072020 | 75 | 251 | 11.0 | 16.0 | 0.00 | 0.00 | 0.00 | 63 | 1003.1 |
| 20260503071512 | 75 | 241 | 7.0 | 17.0 | 0.00 | 0.00 | 0.00 | 64 | 1002.7 |
| 20260503071009 | 75 | 252 | 7.0 | 16.0 | 0.00 | 0.00 | 0.00 | 64 | 1002.7 |
| 20260503070505 | 74 | 239 | 9.0 | 15.0 | 0.00 | 0.00 | 0.00 | 65 | 1002.6 |